Weather History for Pine Ridge, SD

Change the Weather History Date:

Friday, February 22, 2013

  Actual Average Record
Temperature  
Mean Temperature 27 °F 28 °F  
Max Temperature 38 °F 42 °F 66 °F (2002)
Min Temperature 16 °F 15 °F 3 °F (2003)
Degree Days  
Heating Degree Days 38 37  
Month to date heating degree days 762 861  
Since 1 July heating degree days 4889 5138  
Cooling Degree Days 0 0  
Month to date cooling degree days 0 0  
Year to date cooling degree days 0 0  
Moisture  
Dew Point 18 °F    
Average Humidity 70    
Maximum Humidity 88    
Minimum Humidity 52    
Precipitation  
Precipitation T in 0.02 in 0.61 in (2012)
Month to date precipitation 0.12 0.36  
Year to date precipitation 0.88 0.68  
Sea Level Pressure  
Sea Level Pressure 29.97 in    
Wind  
Wind Speed 2 mph (WSW)    
Max Wind Speed 10 mph    
Max Gust Speed 14 mph    
Visibility 10 miles    
Events      
T = Trace of Precipitation, MM = Missing Value Source: NWS Daily Summary

Daily Weather History Graph

Daily Weather History Graph

Search for Another Location

Airport:

Trip Planner

Search our weather history database for the weather conditions in past years. The results will help you decide how hot, cold, wet, or windy it might be!

Date:

Astronomy

Feb. 22, 2013 Rise Set
Actual Time 6:36 AM MST 5:30 PM MST
Civil Twilight 6:08 AM MST 5:59 PM MST
Nautical Twilight 5:35 AM MST 6:32 PM MST
Astronomical Twilight 5:02 AM MST 7:05 PM MST
Moon 2:41 PM MST (2/22) 4:26 AM MST (2/22)
Length of Visible Light 11h 51m
Length of Day
10h 54m
Waxing Gibbous, 90% of the Moon is Illuminated
Feb 22
Waxing Gibbous
Feb 25
Full
Mar 4
Last Quarter
Mar 11
New
Mar 19
First Quarter

Hourly Weather History & Observations

Time (MST) Temp. Windchill Dew Point Humidity Pressure Visibility Wind Dir Wind Speed Gust Speed Precip Events Conditions
12:52 AM 17.1 °F - 12.9 °F 84% 30.02 in 9.0 mi Calm Calm - 0.00 in   Overcast
1:52 AM 17.1 °F - 12.9 °F 84% 30.02 in 10.0 mi Calm Calm - N/A   Overcast
2:52 AM 17.1 °F - 12.9 °F 84% 30.01 in 8.0 mi Calm Calm - N/A   Overcast
3:22 AM 17.6 °F - 12.2 °F 79% 29.88 in 8.0 mi Calm Calm - N/A   Overcast
3:52 AM 16.0 °F - 12.0 °F 84% 30.02 in 10.0 mi Calm Calm - N/A   Overcast
5:52 AM 17.1 °F - 12.9 °F 84% 30.04 in 10.0 mi Calm Calm - N/A   Overcast
6:52 AM 18.0 °F - 14.0 °F 84% 30.04 in 10.0 mi Calm Calm - N/A   Overcast
7:52 AM 18.0 °F - 14.0 °F 84% 30.07 in 10.0 mi Calm Calm - N/A   Overcast
8:27 AM 19.4 °F - 15.8 °F 86% 29.93 in 10.0 mi Calm Calm - N/A   Overcast
8:35 AM 19.4 °F - 15.8 °F 86% 29.93 in 10.0 mi Calm Calm - N/A   Overcast
8:52 AM 19.9 °F - 16.0 °F 85% 30.08 in 10.0 mi Calm Calm - N/A   Overcast
9:20 AM 21.2 °F - 17.6 °F 86% 29.92 in 10.0 mi Calm Calm - N/A   Overcast
9:52 AM 21.9 °F - 17.1 °F 82% 30.07 in 10.0 mi Calm Calm - N/A   Overcast
10:52 AM 25.0 °F 18.1 °F 19.0 °F 78% 30.06 in 10.0 mi WSW 5.8 mph - N/A   Scattered Clouds
11:35 AM 26.6 °F 18.2 °F 19.4 °F 74% 29.93 in 10.0 mi West 8.1 mph - N/A   Mostly Cloudy
11:52 AM 28.0 °F 20.0 °F 21.0 °F 75% 30.05 in 10.0 mi West 8.1 mph - N/A   Mostly Cloudy
12:10 PM 28.4 °F 19.1 °F 21.2 °F 74% 29.91 in 10.0 mi WSW 10.4 mph - N/A   Scattered Clouds
12:22 PM 28.4 °F 21.2 °F 23.0 °F 80% 29.91 in 10.0 mi West 6.9 mph - N/A   Mostly Cloudy
12:44 PM 30.2 °F 23.4 °F 24.8 °F 80% 29.90 in 10.0 mi West 6.9 mph - N/A   Mostly Cloudy
12:52 PM 30.9 °F 25.2 °F 24.1 °F 76% 30.01 in 10.0 mi Variable 5.8 mph - N/A   Overcast
1:16 PM 32.0 °F 25.6 °F 23.0 °F 69% 29.88 in 10.0 mi West 6.9 mph - N/A   Scattered Clouds
1:52 PM 34.0 °F 27.2 °F 24.1 °F 67% 29.98 in 10.0 mi West 8.1 mph - N/A   Scattered Clouds
2:52 PM 36.0 °F 33.3 °F 23.0 °F 59% 29.96 in 10.0 mi Variable 3.5 mph - N/A   Clear
3:52 PM 36.0 °F - 21.9 °F 57% 29.94 in 10.0 mi Calm Calm - N/A   Partly Cloudy
4:52 PM 37.0 °F 34.5 °F 21.9 °F 54% 29.92 in 10.0 mi SE 3.5 mph - N/A   Mostly Cloudy
5:52 PM 34.0 °F 28.0 °F 19.9 °F 56% 29.93 in 10.0 mi WSW 6.9 mph - N/A   Partly Cloudy
6:52 PM 28.0 °F - 19.9 °F 72% 29.94 in 10.0 mi Calm Calm - N/A   Clear
7:52 PM 27.0 °F 23.0 °F 19.0 °F 72% 29.94 in 10.0 mi SW 3.5 mph - N/A   Clear
8:52 PM 26.1 °F - 18.0 °F 71% 29.93 in 10.0 mi Calm Calm - N/A   Clear
9:52 PM 21.0 °F - 16.0 °F 81% 29.93 in 10.0 mi Calm Calm - N/A   Clear
10:52 PM 19.0 °F - 15.1 °F 85% 29.91 in 10.0 mi Calm Calm - N/A   Clear
11:52 PM 23.0 °F 18.4 °F 17.1 °F 78% 29.87 in 10.0 mi West 3.5 mph - N/A   Clear